HYLAS 4 (43272 NORAD) Tracking and Keplerian Element Data

This shows tracking and keplerian element data for the satellite.

Feedback or suggestion? Click here.




ElementValue
Catalog43272
NameHYLAS 4
Epoch Orbit2264
Epoch Day158.05396684
Epoch Year2024
RAAN273.4146
Inclination0.0666
Eccentricity0.0001044
Argument of Perigee166.8377
Mean Anonmoly160.6241
Mean Motion1.0027054
Decay Rate-2.31E-06
L11 43272U 18033B 24158.05396684 -.00000231 00000+0 00000+0 0 9999
L22 43272 0.0666 273.4146 0001044 166.8377 160.6241 1.00270540 22645



Live tracking and technical data element details for HYLAS 4 (NORAD 43272). HYLAS 4 can be tracked NOW for your location showing map with azimuth and elevation plus other details from your city location.







IsCatalogInMostPopularTable: catalog: 43272, numindb: 924
Update: records affected: 1



GetName: 43272 HYLAS 4

Hit Count: updated at: Tue, 17 Sep 2024 13:05:32 GMT